• în România
  • Lista ţărilor
  • Pe 7 zile
  • Temperatura apei
  • Hartă satelitară
  • Meteo pe hartă
  • Widget-uri
  • user-avatar
    Intrare

    Meteo pe oră la Buar

    Astăzi, 20 Octombrie, Vineri

    Timp Temperatura Precipitaţii Vânt Presiune Umiditate
    00:00 +22°C° 0 mm 1 m/s 695 mmHg 90%
    01:00 +22°C° 0 mm 1 m/s 695 mmHg 90%
    02:00 +21°C° 0 mm 1 m/s 695 mmHg 91%
    03:00 +21°C° 0 mm 1 m/s 695 mmHg 91%
    04:00 +21°C° 0 mm 1 m/s 695 mmHg 91%
    05:00 +22°C° 0 mm 1 m/s 695 mmHg 89%
    06:00 +21°C° 0 mm 0 m/s 695 mmHg 87%
    07:00 +22°C° 0 mm 0 m/s 696 mmHg 84%
    08:00 +25°C° 0 mm 0 m/s 696 mmHg 75%
    09:00 +28°C° 0 mm 0 m/s 697 mmHg 66%
    10:00 +31°C° 0 mm 0 m/s 697 mmHg 57%
    11:00 +33°C° 0 mm 1 m/s 697 mmHg 53%
    12:00 +33°C° 0 mm 1 m/s 696 mmHg 49%
    13:00 +34°C° 0 mm 2 m/s 695 mmHg 46%
    14:00 +32°C° 0 mm 2 m/s 695 mmHg 51%
    15:00 +32°C° 0 mm 1 m/s 695 mmHg 56%
    16:00 +31°C° 0 mm 1 m/s 694 mmHg 60%
    17:00 +29°C° 0,3 mm 1 m/s 695 mmHg 67%
    18:00 +27°C° 0,3 mm 1 m/s 695 mmHg 73%
    19:00 +25°C° 0,3 mm 1 m/s 695 mmHg 79%
    20:00 +24°C° 0,9 mm 1 m/s 695 mmHg 83%
    21:00 +24°C° 0,9 mm 1 m/s 695 mmHg 87%
    22:00 +23°C° 0,9 mm 1 m/s 696 mmHg 90%
    23:00 +23°C° 0,4 mm 1 m/s 696 mmHg 91%

    Mâine, 21 Octombrie, Sâmbătă

    Timp Temperatura Precipitaţii Vânt Presiune Umiditate
    00:00 +22°C° 0,4 mm 1 m/s 695 mmHg 92%
    01:00 +20°C° 0,4 mm 0 m/s 695 mmHg 92%
    02:00 +20°C° 0 mm 0 m/s 695 mmHg 92%
    03:00 +20°C° 0 mm 0 m/s 695 mmHg 92%
    04:00 +21°C° 0 mm 1 m/s 694 mmHg 92%
    05:00 +20°C° 0 mm 0 m/s 695 mmHg 91%
    06:00 +21°C° 0 mm 0 m/s 695 mmHg 89%
    07:00 +22°C° 0 mm 0 m/s 696 mmHg 87%
    08:00 +27°C° 0 mm 1 m/s 696 mmHg 77%
    09:00 +30°C° 0 mm 1 m/s 697 mmHg 66%
    10:00 +32°C° 0 mm 1 m/s 697 mmHg 55%
    11:00 +33°C° 0,1 mm 1 m/s 696 mmHg 51%
    12:00 +34°C° 0,1 mm 1 m/s 696 mmHg 47%
    13:00 +35°C° 0,1 mm 2 m/s 695 mmHg 43%
    14:00 +34°C° 0 mm 2 m/s 695 mmHg 48%
    15:00 +32°C° 0 mm 1 m/s 694 mmHg 53%
    16:00 +32°C° 0 mm 1 m/s 694 mmHg 57%
    17:00 +30°C° 0 mm 1 m/s 694 mmHg 61%
    18:00 +28°C° 0 mm 1 m/s 694 mmHg 65%
    19:00 +27°C° 0 mm 1 m/s 695 mmHg 70%
    20:00 +26°C° 0,2 mm 1 m/s 695 mmHg 74%
    21:00 +25°C° 0,2 mm 1 m/s 695 mmHg 78%
    22:00 +24°C° 0,2 mm 1 m/s 696 mmHg 83%
    23:00 +24°C° 0 mm 1 m/s 695 mmHg 84%

    Poimâine, 22 Octombrie, Duminică

    Timp Temperatura Precipitaţii Vânt Presiune Umiditate
    00:00 +23°C° 0 mm 1 m/s 695 mmHg 86%
    01:00 +23°C° 0 mm 1 m/s 695 mmHg 87%
    02:00 +22°C° 0,4 mm 1 m/s 695 mmHg 88%
    03:00 +22°C° 0,4 mm 1 m/s 694 mmHg 90%
    04:00 +22°C° 0,4 mm 1 m/s 694 mmHg 91%
    05:00 +22°C° 0,5 mm 1 m/s 695 mmHg 91%
    06:00 +23°C° 0,5 mm 1 m/s 695 mmHg 91%
    07:00 +23°C° 0,5 mm 1 m/s 696 mmHg 90%
    08:00 +26°C° 0,4 mm 1 m/s 696 mmHg 82%
    09:00 +28°C° 0,4 mm 1 m/s 697 mmHg 74%
    10:00 +31°C° 0,4 mm 1 m/s 697 mmHg 66%
    11:00 +32°C° 1 mm 1 m/s 696 mmHg 62%
    12:00 +33°C° 1 mm 1 m/s 696 mmHg 58%
    13:00 +33°C° 1 mm 1 m/s 695 mmHg 53%
    14:00 +32°C° 0,6 mm 1 m/s 694 mmHg 61%
    15:00 +30°C° 0,6 mm 1 m/s 694 mmHg 68%
    16:00 +29°C° 0,6 mm 1 m/s 693 mmHg 75%
    17:00 +28°C° 0,7 mm 1 m/s 693 mmHg 79%
    18:00 +26°C° 0,7 mm 1 m/s 694 mmHg 84%
    19:00 +25°C° 0,7 mm 1 m/s 694 mmHg 88%
    20:00 +24°C° 1,3 mm 1 m/s 694 mmHg 90%
    21:00 +23°C° 1,3 mm 1 m/s 694 mmHg 92%
    22:00 +23°C° 1,3 mm 1 m/s 695 mmHg 94%
    23:00 +23°C° 0,6 mm 1 m/s 694 mmHg 94%

    23 Octombrie, Luni

    Timp Temperatura Precipitaţii Vânt Presiune Umiditate
    00:00 +22°C° 0,6 mm 1 m/s 694 mmHg 94%
    01:00 +22°C° 0,6 mm 1 m/s 694 mmHg 95%
    02:00 +22°C° 0,9 mm 1 m/s 693 mmHg 95%
    03:00 +22°C° 0,9 mm 1 m/s 693 mmHg 95%
    04:00 +22°C° 0,9 mm 1 m/s 693 mmHg 96%
    05:00 +22°C° 0,2 mm 1 m/s 694 mmHg 95%
    06:00 +22°C° 0,2 mm 1 m/s 694 mmHg 94%
    07:00 +23°C° 0,2 mm 1 m/s 695 mmHg 93%
    08:00 +25°C° 0,5 mm 1 m/s 695 mmHg 88%
    09:00 +26°C° 0,5 mm 1 m/s 696 mmHg 83%
    10:00 +28°C° 0,5 mm 2 m/s 696 mmHg 78%
    11:00 +28°C° 1,5 mm 2 m/s 695 mmHg 77%
    12:00 +28°C° 1,5 mm 1 m/s 695 mmHg 76%
    13:00 +29°C° 1,5 mm 1 m/s 694 mmHg 75%
    14:00 +28°C° 0,8 mm 1 m/s 694 mmHg 77%
    15:00 +28°C° 0,8 mm 1 m/s 693 mmHg 79%
    16:00 +27°C° 0,8 mm 1 m/s 693 mmHg 80%
    17:00 +26°C° 0,4 mm 1 m/s 693 mmHg 84%
    18:00 +25°C° 0,4 mm 1 m/s 694 mmHg 88%
    19:00 +24°C° 0,4 mm 1 m/s 694 mmHg 91%
    20:00 +23°C° 0,1 mm 1 m/s 694 mmHg 93%
    21:00 +23°C° 0,1 mm 1 m/s 694 mmHg 94%
    22:00 +22°C° 0,1 mm 1 m/s 695 mmHg 96%
    23:00 +22°C° 0 mm 1 m/s 694 mmHg 96%

    24 Octombrie, Marţi

    Timp Temperatura Precipitaţii Vânt Presiune Umiditate
    00:00 +22°C° 0 mm 1 m/s 694 mmHg 97%
    01:00 +22°C° 0 mm 1 m/s 693 mmHg 97%
    02:00 +21°C° 0 mm 1 m/s 693 mmHg 97%
    03:00 +21°C° 0 mm 1 m/s 693 mmHg 97%
    04:00 +21°C° 0 mm 1 m/s 693 mmHg 98%
    05:00 +21°C° 0 mm 1 m/s 694 mmHg 96%
    06:00 +22°C° 0 mm 1 m/s 694 mmHg 95%
    07:00 +22°C° 0 mm 1 m/s 695 mmHg 94%
    08:00 +24°C° 0 mm 1 m/s 695 mmHg 86%
    09:00 +26°C° 0 mm 2 m/s 696 mmHg 78%
    10:00 +28°C° 0 mm 2 m/s 696 mmHg 70%
    11:00 +29°C° 0,9 mm 2 m/s 695 mmHg 68%
    12:00 +30°C° 0,9 mm 1 m/s 694 mmHg 67%
    13:00 +31°C° 0,9 mm 1 m/s 694 mmHg 65%
    14:00 +30°C° 0,6 mm 1 m/s 694 mmHg 67%
    15:00 +30°C° 0,6 mm 1 m/s 693 mmHg 69%
    16:00 +29°C° 0,6 mm 1 m/s 693 mmHg 71%
    17:00 +27°C° 0,6 mm 1 m/s 693 mmHg 77%
    18:00 +26°C° 0,6 mm 1 m/s 694 mmHg 82%
    19:00 +24°C° 0,6 mm 1 m/s 694 mmHg 88%
    20:00 +23°C° 0 mm 1 m/s 694 mmHg 88%
    21:00 +23°C° 0 mm 1 m/s 694 mmHg 89%
    22:00 +21°C° 0 mm 0 m/s 694 mmHg 89%
    23:00 +23°C° 0 mm 1 m/s 694 mmHg 90%

    25 Octombrie, Miercuri

    Timp Temperatura Precipitaţii Vânt Presiune Umiditate
    00:00 +22°C° 0 mm 1 m/s 694 mmHg 91%
    01:00 +22°C° 0 mm 1 m/s 693 mmHg 91%
    02:00 +22°C° 0 mm 1 m/s 693 mmHg 91%
    03:00 +22°C° 0 mm 1 m/s 693 mmHg 91%
    04:00 +21°C° 0 mm 1 m/s 693 mmHg 91%
    05:00 +22°C° 0 mm 1 m/s 694 mmHg 89%
    06:00 +23°C° 0 mm 1 m/s 694 mmHg 88%
    07:00 +23°C° 0 mm 1 m/s 695 mmHg 86%
    08:00 +26°C° 0 mm 1 m/s 695 mmHg 78%
    09:00 +26°C° 0 mm 0 m/s 696 mmHg 70%
    10:00 +29°C° 0 mm 0 m/s 696 mmHg 63%
    11:00 +32°C° 0,2 mm 1 m/s 695 mmHg 57%
    12:00 +33°C° 0,2 mm 1 m/s 695 mmHg 52%
    13:00 +34°C° 0,2 mm 2 m/s 694 mmHg 46%
    14:00 +32°C° 0,2 mm 1 m/s 694 mmHg 52%
    15:00 +31°C° 0,2 mm 1 m/s 693 mmHg 57%
    16:00 +30°C° 0,2 mm 1 m/s 693 mmHg 63%
    17:00 +28°C° 0,6 mm 1 m/s 693 mmHg 69%
    18:00 +27°C° 0,6 mm 1 m/s 694 mmHg 75%
    19:00 +25°C° 0,6 mm 1 m/s 694 mmHg 81%
    20:00 +24°C° 0,4 mm 1 m/s 694 mmHg 85%
    21:00 +23°C° 0,4 mm 1 m/s 694 mmHg 88%
    22:00 +23°C° 0,4 mm 1 m/s 694 mmHg 91%
    23:00 +22°C° 0,1 mm 1 m/s 694 mmHg 91%
    Arată mai mult